Regional Weather Roundup
Issued by NWS

Home | Current Version | Previous Version | Graphics & Text | Print | Product List | Glossary On
Versions: 1 2 3 4 5 6 7 8 9 10 11 12 13 14 15 16 17 18 19 20 21 22 23 24 25 26 27 28 29 30 31 32 33 34 35 36 37 38 39 40 41 42 43 44 45 46 47 48 49 50
000
ASUS43 KLOT 192310
RWRIL

ILLINOIS REGIONAL WEATHER ROUNDUP
NATIONAL WEATHER SERVICE CHICAGO/ROMEOVILLE IL
600 PM CDT SAT APR 19 2014

NOTE: "FAIR" INDICATES FEW OR NO CLOUDS BELOW 12,000 FEET WITH NO
SIGNIFICANT WEATHER AND/OR OBSTRUCTIONS TO VISIBILITY.

* THESE STATIONS ARE NOT UNDER NWS QUALITY CONTROL. THEY ALSO MAY NOT
  REPORT WEATHER SUCH AS PRECIPITATION OR FOG.

ILZ001-002-007-009-015-016-024-200000-
NORTHWEST ILLINOIS

CITY           SKY/WX    TMP DP  RH WIND       PRES   REMARKS
MOLINE         PTSUNNY   72  32  23 S14       30.13F
STERLING*      MOSUNNY   72  32  23 S9G17     30.16F
SAVANNA*       PTSUNNY   73  28  19 SE16G23   30.15F
$$

ILZ003-004-008-010-011-017-018-200000-
NORTH CENTRAL ILLINOIS

CITY           SKY/WX    TMP DP  RH WIND       PRES   REMARKS
ROCKFORD       CLOUDY    68  32  26 S20       30.20F
FREEPORT*      PTSUNNY   69  32  25 S16G22    30.19F
ROCHELLE*      PTSUNNY   70  31  23 S17       30.19F
DE KALB*       PTSUNNY   66  32  28 S13       30.21F
PERU*          MOSUNNY   72  32  23 SE8       30.18F
$$

ILZ005-006-012>014-019>023-200000-
NORTHEAST ILLINOIS

CITY           SKY/WX    TMP DP  RH WIND       PRES   REMARKS
CHICAGO-OHARE  CLOUDY    63  36  36 E10       30.22F
CHICAGO-MIDWAY CLOUDY    61  38  42 E13       30.23F
AURORA         PTSUNNY   68  32  26 SE15      30.21F
LANSING*       MOSUNNY   66  33  29 SE10      30.24S
WAUKEGAN       MOSUNNY   50  35  56 E8        30.24F
DUPAGE AIRPORT PTSUNNY   67  34  29 S12       30.21F
KANKAKEE*      MOSUNNY   68  37  32 SE10      30.23F
WHEELING       MOSUNNY   59  37  44 E7        30.24F
MORRIS*        PTSUNNY   70  24  17 S12       30.21F
ROMEOVILLE*    PTSUNNY   66  33  29 SE10      30.22S
NORTHERLY ISL    N/A     48  37  65 NE3         N/A
$$

LMZ740>746-200000-
SOUTHERN LAKE MICHIGAN

STATION/POSITION SKY/WX   TEMP    WIND        PRES    VSBY  WAVE
                          AIR SEA DIR/SP/G                  HT/PER
                          (F)     (DEG/KT/KT) (MB)    (MI)  (FT/S)
WAUKEGAN HARBOR            42      50/  1/  3 1025.4S
HARRISON CRIB              44      50/  3/  4   N/A
BURNHAM HARBOR             48      10/  4/  7   N/A
CALUMET HARBOR             47      20/  6/  8 1024.8F
MICHIGAN CITY              64      90/  7/ 10   N/A
$$

ILZ025>027-034>036-040-047-049-050-058-095>099-200000-
WEST-CENTRAL ILLINOIS

CITY           SKY/WX    TMP DP  RH WIND       PRES   REMARKS
QUINCY         MOSUNNY   74  34  23 SE14      30.14F
GALESBURG*     PTSUNNY   71  40  32 SE8       30.16S
MACOMB*        PTSUNNY   74  34  22 S15       30.17S
JACKSONVILLE*  PTSUNNY   73  38  27 SE12      30.18F
PITTSFIELD*    MOSUNNY   75  33  21 SE10      30.16F
$$

ILZ028>032-037-038-041>044-048-051>054-059>061-200000-
CENTRAL ILLINOIS

CITY           SKY/WX    TMP DP  RH WIND       PRES   REMARKS
PONTIAC        MOSUNNY   72  32  23 SE12      30.20F
BLOOMINGTON    MOSUNNY   68  33  27 SE12      30.21F
DECATUR        MOSUNNY   71  31  22 SE8       30.20F
PEORIA         PTSUNNY   71  34  25 SE10      30.18F
LACON*         PTSUNNY   71  33  25 S8        30.18F
LINCOLN*       MOSUNNY   73  33  23 S6        30.19R
SPRINGFIELD    PTSUNNY   73  39  29 SE12      30.19F
TAYLORVILLE    MOSUNNY   70  39  32 S5        30.20S
$$

ILZ033-039-045-046-055>057-062-063-200000-
EAST-CENTRAL ILLINOIS

CITY           SKY/WX    TMP DP  RH WIND       PRES   REMARKS
CHAMPAIGN      SUNNY     72  34  24 E12       30.21F
RANTOUL*       SUNNY     72  33  23 CALM      30.22F
MATTOON        SUNNY     69  38  32 SE9       30.21S
PARIS*         SUNNY     70  38  31 E6        30.23R
$$

ILZ079-100>102-200000-
SOUTHWEST ILLINOIS

CITY           SKY/WX    TMP DP  RH WIND       PRES   REMARKS
ALTON          SUNNY     72  39  30 SE9       30.19
BELLEVILLE     MOSUNNY   72  44  36 E6        30.18S
CAHOKIA*       MOSUNNY   73  43  33 SE7       30.18S
SPARTA*        SUNNY     72  45  37 E5        30.19S
$$

ILZ064>066-069>071-074>076-080>082-084>086-088>090-092>094-200000-
SOUTH-CENTRAL ILLINOIS

CITY           SKY/WX    TMP DP  RH WIND       PRES   REMARKS
CARBONDALE     SUNNY     73  41  31 E8        30.17F
CAIRO*         SUNNY     78  38  23 NE9       30.16R
MARION         SUNNY     73  41  31 SE6       30.19S
MT. VERNON     SUNNY    N/A N/A N/A E9        30.20S
CENTRALIA*       N/A     72  39  29 CALM      30.19F
SALEM*         SUNNY     73  44  35 E6        30.20S
METROPOLIS*    SUNNY     75  32  21 N6        30.16R
$$

ILZ067-068-072-073-078-083-087-091-200000-
SOUTHEAST ILLINOIS

CITY           SKY/WX    TMP DP  RH WIND       PRES   REMARKS
FAIRFIELD*     SUNNY     73  37  27 NE5       30.20S
HARRISBURG*    SUNNY     72  43  35 E7        30.20S
ROBINSON*      SUNNY     73  42  32 E7        30.21S
CARMI*         SUNNY     74  45  35 NE7       30.18F
$$

ABBREVIATIONS USED IN REMARKS
   TC - TEMPERATURE IN CELSIUS
  WCI - WIND CHILL INDEX
   HX - HEAT INDEX
  VSB - VISIBILITY
$$




USA.gov is the U.S. government's official web portal to all federal, state and local government web resources and services.